User: anonymous   Login
Location: Fort Wayne
(41.1310°N, 85.1290°W)
Time: 02:02:26
(UTC-04:00)
Language:

Cosmos 2082 - Orbit

View from above orbital plane
View from above orbital plane
View from above satellite
View from above satellite

Ground track
Ground track

The orbit data is extracted from the following two-line orbital elements,

1 20624U 90046A   16119.77838072  .00000309  00000-0  18677-3 0  9997
2 20624  71.0422   1.9232 0016584 295.8236  64.1175 14.14197093338601
Epoch (UTC): 28 April 2016 18:40:52
Eccentricity: 0.0016584
inclination: 71.0422°
perigee height: 833 km
apogee height: 857 km
right ascension of ascending node: 1.9232°
argument of perigee: 295.8236°
revolutions per day: 14.14197093
mean anomaly at epoch: 64.1175°
orbit number at epoch: 33860

The dashed part of the orbit path shows where the satellite is in the earth's shadow,  

DLR